Temp
60 52 50 52 52 51 50 48 46 53 54 47 48 49 53 49 48 44 43 44 44 46 49 50 50 49 50 49 51 52 52 53 53 52 49 49 49 52 51 51 52 54 55 55
56 50 54 55 54 51 49 47 46 51 53 49 47 48 46 47 47 45 44 43 44 45 46 48 48 47 48 49 50 51 51 52 52 52 51 51 51 52 52 51 51 52 52 53
49 55 57 54 51 50 49 46 44 42 48 50 47 43 39 45 46 46 47 46 46 44 43 45 46 44 48 48 48 49 50 50 51 52 51 50 51 50 48 49 49 50 50 51
51 54 51 49 49 50 42 46 46 44 39 33 45 31 38 41 41 44 44 41 41 41 44 45 44 46 46 47 48 48 48 48 49 49 47 46 44 44 48 48 49 49 50 50
50 48 47 46 48 48 45 45 44 42 39 37 39 33 38 41 38 40 41 42 40 40 42 42 44 46 47 47 46 46 46 46 46 43 42 42 43 43 45 48 47 48 48 49
51 51 47 47 49 47 48 44 44 44 40 26 37 35 35 36 41 39 41 40 41 40 40 43 46 46 45 45 45 44 43 43 42 40 38 36 36 35 38 42 44 45 47 46
48 48 46 47 43 45 43 39 27 25 24 24 37 30 36 38 40 40 40 38 38 38 41 41 42 42 43 42 42 42 40 37 37 35 34 33 33 34 34 35 40 44 45 44
38 36 44 47 42 38 40 38 25 17 19 23 33 25 34 42 42 43 42 40 40 39 40 41 41 41 41 42 40 39 36 34 34 32 31 32 32 32 33 35 36 36 43 44
41 40 43 43 44 42 38 31 37 26 15 14 25 35 38 40 40 40 39 39 36 38 39 39 41 41 40 40 38 36 34 33 32 30 30 30 30 30 31 32 34 35 37 45
41 34 41 39 40 40 36 41 27 27 11 10 25 29 30 32 35 36 35 34 34 37 39 39 39 39 40 39 37 36 33 30 30 29 29 29 28 29 29 30 30 33 37 38
40 38 33 37 34 35 32 29 32 33 27 16 12 23 37 35 37 33 33 36 35 36 36 38 38 39 39 37 36 33 31 29 28 27 26 25 25 26 28 28 29 32 35 36
39 37 29 35 38 38 35 35 34 20 20 23 20 25 41 39 38 37 35 36 35 37 36 38 37 37 36 34 33 32 30 27 27 26 24 24 23 25 24 26 28 30 30 35
37 32 24 27 30 35 30 32 33 33 30 22 19 22 39 39 38 37 34 32 35 36 36 37 36 35 33 32 31 30 28 26 26 24 23 21 21 21 22 22 24 26 28 29
43 34 30 31 35 35 27 29 32 31 25 26 26 28 36 39 38 35 33 33 33 35 36 35 33 32 32 31 29 28 27 26 24 23 21 19 18 19 20 21 22 23 25 27
37 25 28 32 34 32 31 30 30 28 30 26 30 29 36 37 33 31 31 34 34 34 34 32 30 30 29 28 27 26 25 24 22 20 19 18 19 19 19 18 19 21 24 27
32 23 29 24 29 29 26 29 29 31 32 30 31 29 41 41 37 30 33 31 31 30 30 30 29 29 27 26 25 25 22 21 20 18 17 18 17 17 17 18 19 21 23 24
27 24 21 20 25 22 17 24 27 30 33 32 25 32 38 34 33 29 29 30 29 28 28 28 27 26 25 24 24 20 20 20 18 17 16 16 16 16 16 17 17 18 19 22
27 24 23 18 20 12 28 30 29 28 32 35 35 36 33 31 31 31 31 27 27 28 27 26 25 23 23 22 21 20 19 17 16 15 14 15 14 13 15 15 16 16 18 19
30 26 19 16 16 22 28 30 25 24 26 33 34 36 34 32 29 28 30 28 25 25 25 24 24 23 21 19 19 17 15 16 14 14 12 13 12 9 12 10 13 15 15 17
28 28 22 18 13 10 23 27 32 32 18 34 35 31 30 29 15 23 26 27 26 25 24 22 22 20 19 17 17 14 13 12 11 11 11 11 9 8 8 10 12 13 14 17
20 20 18 18 16 18 31 30 32 16 25 32 32 30 29 25 27 26 27 23 24 23 21 21 19 17 16 16 14 10 10 10 11 11 9 8 8 8 12 15 16 14 14 18
19 16 16 18 14 12 33 29 24 30 32 33 31 31 29 28 26 25 24 22 20 18 18 18 15 13 14 14 10 8 7 10 9 7 5 5 7 13 14 15 17 19 16 16
19 25 20 22 22 33 34 32 35 34 32 31 30 29 28 25 24 23 20 18 17 16 16 15 11 10 11 11 9 4 7 7 5 1 1 5 10 11 13 13 16 21 20 20
28 33 25 25 29 32 34 36 35 35 32 31 30 26 25 22 21 17 17 16 14 15 13 11 9 7 6 7 7 5 5 4 -1 -2 3 7 8 9 11 14 16 18 22 27
28 30 27 25 30 32 33 35 36 32 30 27 25 24 23 21 16 15 13 12 13 12 10 9 6 5 3 4 3 2 1 -1 -2 1 5 5 7 8 9 12 12 16 19 23
32 27 24 24 33 33 32 36 35 30 27 26 22 17 19 19 15 13 11 12 10 8 7 4 3 2 1 0 -1 -2 -2 -3 -3 0 2 4 4 7 8 8 9 15 18 22
MSLP
1012.56 1012.94 1012.95 1012.78 1013.13 1013.39 1013.50 1013.43 1013.18 1012.60 1012.44 1013.03 1013.22 1013.52 1014.09 1015.62 1016.88 1017.88 1018.51 1018.89 1019.36 1019.59 1019.84 1019.94 1019.96 1020.12 1019.88 1019.32 1018.88 1018.41 1017.61 1016.98 1016.23 1015.31 1014.52 1013.79 1012.85 1011.92 1011.25 1010.84 1010.29 1009.73 1009.20 1008.72
1012.75 1012.75 1013.17 1013.30 1013.56 1013.85 1013.82 1013.83 1013.61 1012.94 1013.00 1013.58 1013.82 1013.71 1014.53 1015.57 1016.57 1017.57 1018.55 1019.19 1019.62 1019.84 1019.80 1019.74 1019.88 1019.96 1019.88 1019.16 1018.61 1017.96 1017.38 1016.70 1016.07 1015.23 1014.19 1013.67 1012.30 1011.25 1010.65 1010.07 1009.61 1009.15 1008.93 1008.41
1013.64 1012.97 1013.30 1013.81 1013.98 1014.08 1014.21 1014.36 1014.20 1014.36 1014.09 1014.06 1013.81 1013.25 1014.85 1016.01 1017.01 1017.78 1018.51 1019.06 1019.45 1019.87 1020.10 1020.04 1020.07 1020.05 1019.43 1019.00 1018.61 1018.11 1017.50 1016.83 1016.01 1015.06 1014.04 1013.35 1012.11 1010.78 1010.07 1009.50 1008.84 1008.50 1008.20 1007.88
1013.71 1013.36 1013.84 1014.16 1014.35 1014.47 1014.73 1014.96 1015.32 1015.42 1015.47 1014.66 1014.22 1013.85 1014.84 1015.98 1017.26 1018.09 1018.60 1019.08 1019.60 1020.01 1020.08 1020.09 1019.86 1019.01 1019.42 1019.24 1018.79 1018.23 1017.51 1016.82 1015.95 1015.01 1014.33 1013.12 1012.14 1010.88 1009.63 1008.63 1007.89 1007.48 1007.34 1007.10
1013.58 1013.65 1014.16 1014.59 1014.68 1015.00 1015.36 1015.61 1015.77 1015.98 1015.65 1015.15 1015.15 1015.60 1013.66 1014.81 1016.46 1017.43 1018.26 1018.99 1019.45 1019.76 1019.79 1019.89 1018.79 1019.03 1019.43 1019.12 1018.68 1018.10 1017.47 1016.55 1015.90 1015.49 1015.16 1013.78 1012.07 1011.15 1009.84 1008.62 1007.21 1006.58 1006.49 1006.27
1013.65 1014.26 1014.80 1014.87 1015.04 1015.50 1015.76 1015.83 1015.74 1015.43 1015.72 1015.91 1015.11 1015.48 1013.99 1014.96 1014.87 1016.82 1017.87 1018.62 1019.09 1019.39 1019.56 1018.81 1018.65 1019.26 1019.16 1018.88 1018.36 1017.84 1017.28 1016.59 1016.02 1015.60 1015.10 1014.33 1013.11 1011.98 1010.43 1008.86 1007.35 1006.38 1005.65 1005.49
1013.88 1013.99 1014.98 1015.49 1015.62 1015.80 1016.43 1016.69 1016.83 1016.70 1016.92 1016.39 1015.83 1015.92 1014.14 1014.83 1015.29 1016.63 1017.91 1018.67 1018.97 1019.05 1018.40 1018.98 1019.25 1019.03 1018.77 1018.33 1017.78 1017.56 1017.09 1016.27 1015.97 1015.56 1015.06 1014.32 1013.42 1012.17 1010.71 1009.52 1007.97 1005.91 1004.84 1005.06
1014.82 1014.57 1015.50 1015.90 1016.07 1016.47 1016.62 1017.28 1018.36 1018.54 1018.77 1017.59 1016.71 1015.51 1013.78 1014.00 1015.32 1016.40 1017.29 1018.27 1018.82 1018.97 1019.45 1019.56 1019.26 1018.92 1018.50 1018.09 1017.85 1017.37 1016.96 1016.02 1015.64 1015.23 1014.69 1014.07 1013.24 1012.05 1010.87 1009.48 1008.50 1007.31 1005.13 1003.68
1015.33 1015.22 1015.92 1016.40 1016.72 1017.11 1017.39 1018.00 1018.61 1019.32 1020.08 1019.51 1016.95 1015.08 1014.94 1014.82 1015.66 1016.46 1017.19 1017.74 1018.73 1019.26 1019.32 1019.06 1018.85 1018.79 1018.37 1018.09 1017.75 1017.44 1016.97 1016.23 1015.73 1014.98 1014.15 1013.53 1012.78 1011.67 1010.45 1009.31 1008.35 1007.22 1005.97 1003.46
1016.35 1016.58 1016.54 1017.45 1017.63 1017.81 1018.11 1018.46 1019.43 1020.28 1021.04 1019.70 1016.81 1015.42 1014.57 1015.26 1015.66 1016.37 1017.32 1017.94 1018.42 1018.51 1018.51 1018.74 1018.69 1018.32 1018.19 1017.97 1017.67 1017.32 1017.11 1016.63 1015.58 1014.80 1013.99 1013.17 1012.36 1011.51 1010.32 1009.14 1008.05 1006.85 1005.29 1004.13
1017.37 1017.86 1017.66 1017.78 1017.79 1017.60 1018.65 1018.87 1019.35 1019.85 1020.32 1019.59 1017.99 1014.92 1013.81 1014.64 1015.32 1016.23 1016.97 1017.74 1017.76 1018.27 1018.50 1018.48 1018.15 1017.95 1017.95 1017.78 1017.47 1016.94 1016.43 1015.91 1015.03 1014.36 1013.66 1012.79 1012.10 1011.06 1009.69 1008.62 1007.57 1006.52 1005.47 1004.08
1017.86 1018.10 1017.90 1017.44 1017.24 1017.48 1017.66 1017.83 1018.55 1019.37 1019.39 1019.01 1018.09 1013.07 1012.87 1013.61 1014.70 1015.64 1016.49 1017.31 1017.87 1018.12 1018.12 1018.04 1017.70 1017.59 1017.37 1017.10 1016.65 1016.13 1015.43 1014.99 1014.42 1013.67 1013.04 1012.16 1011.69 1010.50 1009.72 1008.12 1006.88 1006.08 1005.57 1004.25
1018.04 1018.40 1018.61 1017.62 1018.27 1018.33 1018.19 1017.74 1017.83 1018.19 1018.58 1017.32 1017.77 1013.58 1013.13 1013.67 1014.48 1014.97 1016.03 1016.91 1017.23 1017.63 1017.71 1017.66 1017.42 1017.36 1017.25 1016.92 1016.47 1015.89 1015.34 1014.63 1013.92 1013.15 1012.30 1011.57 1010.99 1010.20 1009.24 1008.07 1006.96 1005.96 1005.07 1004.51
1018.24 1018.32 1017.69 1016.99 1016.71 1017.63 1018.38 1017.73 1017.58 1018.08 1017.72 1015.57 1014.12 1012.41 1013.36 1013.31 1014.06 1014.95 1015.73 1016.38 1016.98 1017.57 1017.73 1017.55 1017.45 1017.32 1017.12 1016.93 1016.48 1015.66 1014.85 1014.53 1013.72 1012.72 1011.77 1010.79 1010.16 1009.60 1008.79 1007.70 1006.56 1005.50 1004.80 1003.59
1019.06 1019.00 1018.81 1017.69 1017.50 1017.55 1017.17 1017.30 1017.12 1016.67 1015.61 1015.65 1011.01 1012.98 1012.36 1013.39 1014.35 1014.98 1015.70 1016.36 1017.00 1017.41 1017.61 1017.95 1017.91 1017.51 1017.18 1016.86 1016.31 1015.67 1014.86 1014.17 1013.38 1012.37 1011.13 1010.04 1009.22 1008.59 1007.83 1007.01 1005.89 1004.63 1003.57 1003.11
1019.99 1019.33 1018.99 1018.12 1018.13 1017.89 1016.68 1016.24 1015.94 1014.99 1013.99 1013.54 1012.81 1011.14 1012.29 1012.92 1013.85 1014.83 1015.82 1016.58 1017.16 1017.57 1017.99 1018.14 1018.03 1017.73 1017.48 1017.10 1016.36 1015.35 1014.74 1013.91 1013.23 1012.04 1010.68 1009.55 1008.45 1007.62 1006.74 1005.85 1004.79 1003.57 1002.22 1001.60
1020.04 1020.05 1019.75 1018.63 1018.78 1018.80 1016.49 1014.10 1013.65 1012.77 1012.56 1012.61 1012.35 1010.22 1012.43 1013.13 1014.20 1015.30 1016.13 1016.88 1017.46 1017.88 1018.17 1018.13 1018.13 1017.90 1017.58 1017.16 1016.68 1015.90 1014.88 1013.94 1013.05 1011.74 1010.45 1009.13 1007.86 1006.65 1005.89 1004.92 1003.98 1002.88 1001.69 1000.73
1018.99 1019.62 1019.89 1019.32 1019.37 1018.08 1013.12 1012.90 1012.79 1012.66 1012.06 1012.15 1011.42 1011.24 1012.39 1013.49 1014.51 1015.36 1016.24 1017.18 1017.94 1018.34 1018.34 1018.54 1018.37 1017.93 1017.94 1017.65 1016.96 1016.20 1015.33 1014.17 1012.92 1011.41 1009.88 1008.56 1007.49 1006.07 1005.06 1003.90 1002.78 1001.76 1001.04 1000.03
1018.39 1019.12 1019.46 1019.39 1018.31 1015.19 1012.16 1011.87 1012.42 1012.31 1011.05 1011.07 1010.97 1011.59 1012.62 1013.82 1014.71 1015.58 1016.68 1017.65 1018.04 1018.28 1018.55 1018.66 1018.88 1018.75 1018.15 1017.76 1017.19 1016.39 1015.06 1013.97 1012.75 1010.99 1009.55 1008.25 1007.17 1005.64 1004.31 1002.93 1001.63 1000.60 999.87 999.20
1018.24 1018.65 1019.09 1018.99 1017.92 1015.61 1012.34 1012.16 1011.80 1012.25 1011.01 1010.20 1010.65 1011.62 1013.02 1014.38 1015.89 1016.27 1017.00 1017.32 1018.21 1018.68 1019.03 1019.05 1018.96 1018.83 1018.60 1018.02 1017.61 1016.79 1015.14 1013.50 1012.03 1010.85 1009.42 1008.11 1006.72 1005.26 1003.54 1001.85 1000.32 999.23 998.49 997.48
1017.46 1017.94 1017.40 1017.48 1016.60 1013.55 1011.21 1011.77 1012.19 1012.48 1010.50 1010.31 1011.21 1012.33 1013.65 1014.95 1015.70 1016.69 1017.33 1018.01 1018.63 1018.95 1019.16 1019.16 1019.31 1019.17 1018.61 1017.97 1017.38 1016.32 1015.18 1013.91 1012.59 1011.16 1009.53 1007.82 1006.12 1004.33 1002.23 1000.09 998.57 997.46 996.72 995.88
1014.12 1015.68 1015.91 1016.53 1015.84 1012.46 1009.40 1011.48 1011.28 1009.89 1009.99 1010.68 1011.87 1012.90 1014.12 1014.88 1015.78 1016.82 1017.92 1018.59 1018.91 1019.13 1019.26 1019.42 1019.24 1018.87 1018.63 1018.52 1017.99 1016.79 1015.24 1013.97 1012.55 1011.06 1009.38 1007.34 1005.31 1003.19 1001.35 999.54 997.35 995.77 995.27 994.36
1012.44 1010.84 1011.49 1011.77 1009.72 1008.56 1008.37 1008.28 1008.99 1009.47 1010.09 1011.12 1012.02 1013.18 1014.25 1015.47 1016.51 1017.42 1018.31 1018.95 1019.12 1019.24 1019.29 1019.52 1019.36 1019.00 1018.93 1018.70 1018.25 1016.97 1015.44 1014.23 1012.65 1011.10 1009.20 1006.96 1004.67 1003.07 1001.13 999.21 996.97 994.78 993.93 993.29
1009.37 1009.50 1009.53 1009.59 1007.85 1008.06 1008.00 1008.45 1008.83 1009.64 1010.49 1011.39 1012.48 1013.72 1014.86 1015.84 1016.86 1017.88 1018.56 1019.17 1019.58 1019.89 1019.84 1019.82 1019.64 1019.48 1019.06 1018.89 1018.45 1017.84 1016.34 1014.88 1013.29 1011.23 1009.09 1006.98 1004.96 1002.76 1001.07 999.42 997.66 995.83 994.14 992.23
1006.98 1007.87 1007.48 1007.61 1007.42 1007.55 1007.64 1007.76 1008.35 1009.63 1010.72 1011.86 1013.07 1014.04 1015.02 1016.11 1017.27 1018.16 1018.90 1019.70 1020.15 1020.33 1020.35 1020.41 1020.56 1020.47 1019.89 1019.36 1018.62 1017.81 1016.81 1015.43 1013.49 1011.35 1009.36 1007.41 1005.78 1003.66 1001.57 1000.02 998.38 996.70 995.36 993.64
1004.66 1005.05 1005.61 1004.92 1005.24 1005.80 1006.28 1007.06 1007.67 1009.23 1010.41 1011.71 1013.19 1014.54 1015.52 1016.39 1017.39 1018.48 1019.51 1020.03 1020.46 1020.73 1020.77 1020.87 1021.09 1020.83 1020.41 1019.89 1018.91 1018.19 1017.37 1016.22 1014.31 1011.91 1010.01 1008.47 1006.66 1004.70 1002.88 1000.51 998.34 997.50 996.04 994.01
Wind_Speed
0 1 7 5 5 4 5 7 10 10 4 1 7 8 7 12 9 9 7 6 5 6 7 7 6 7 10 9 12 15 15 17 14 12 11 12 12 13 10 9 13 14 13 15
5 7 4 3 3 4 6 9 11 6 4 3 10 16 7 13 11 9 8 4 5 6 7 6 8 9 12 13 16 19 19 20 17 14 11 13 14 13 12 9 10 11 11 14
4 7 3 3 5 7 7 8 5 4 7 10 17 15 10 8 6 7 7 4 6 7 6 6 7 8 16 17 18 19 22 22 21 21 13 16 15 12 10 12 9 9 8 10
8 3 2 5 6 4 5 4 3 7 5 5 7 9 4 14 11 9 7 7 5 5 5 6 7 16 17 16 17 20 21 23 21 17 21 21 16 20 14 13 12 10 7 9
9 2 3 4 3 2 3 2 6 10 12 10 10 7 5 20 14 12 8 6 6 5 5 7 10 16 17 15 18 18 22 21 20 20 22 19 21 15 16 17 14 15 9 6
13 6 3 2 1 2 7 7 9 13 8 5 8 6 5 11 15 10 7 6 5 4 5 9 14 15 16 16 18 18 20 21 20 20 24 23 23 22 19 19 15 14 10 5
1 10 4 1 4 5 3 5 5 6 1 8 5 5 8 6 10 11 7 5 4 5 10 12 15 16 17 20 19 19 23 24 22 21 21 20 22 25 22 19 17 18 9 6
4 5 8 5 1 1 2 0 5 7 4 6 8 9 5 13 11 9 8 6 6 9 6 11 13 16 17 18 20 21 22 25 24 22 22 19 20 14 15 17 15 13 16 8
5 5 4 4 3 1 4 4 2 2 3 3 6 6 5 12 9 7 6 7 6 6 7 10 15 16 13 17 19 19 21 23 22 22 20 20 18 20 17 21 18 14 17 16
4 8 2 3 1 2 2 2 4 1 3 8 6 8 5 8 5 5 5 4 3 5 10 11 13 12 14 15 16 18 18 20 21 22 18 18 19 19 21 18 19 19 17 17
1 4 2 4 7 8 4 4 4 1 5 6 4 6 7 8 7 3 2 3 7 7 8 11 14 13 15 14 16 18 18 20 20 18 19 21 19 21 18 17 19 17 17 19
6 4 5 8 3 3 1 7 10 6 6 4 3 16 4 3 9 7 2 4 4 6 9 14 11 16 17 17 18 19 21 21 21 20 20 19 22 19 22 19 18 16 17 17
8 4 3 7 3 1 6 6 5 5 3 17 6 11 5 8 8 3 6 4 5 10 13 15 13 16 16 17 19 20 20 21 21 22 21 20 20 19 21 20 22 18 18 15
4 5 11 18 7 6 6 8 11 13 13 20 27 31 15 15 15 6 6 6 7 10 14 13 15 17 17 17 18 21 22 20 22 22 22 22 21 20 19 18 21 20 18 15
5 9 11 21 16 10 14 9 15 20 24 20 33 23 23 12 5 3 3 5 8 12 13 12 16 17 18 19 20 21 20 22 21 24 23 23 22 21 20 20 19 20 19 12
5 5 7 16 6 10 19 18 17 22 26 26 28 34 17 15 8 3 4 6 9 11 9 14 17 19 19 20 22 23 23 22 22 23 24 23 22 22 21 19 18 20 19 14
8 6 4 7 5 8 17 24 28 27 21 22 24 30 13 8 2 1 3 6 7 8 11 14 16 17 19 20 22 24 24 24 23 23 23 22 23 21 22 21 19 19 19 18
8 6 5 2 4 9 3 2 4 13 20 20 24 22 4 3 4 2 4 3 4 9 11 13 13 17 17 18 20 21 22 22 22 23 22 21 24 24 23 22 20 19 16 17
8 7 4 5 8 12 17 6 8 9 7 12 18 14 5 6 4 4 8 3 2 6 9 10 11 16 17 18 19 22 23 22 22 22 24 23 23 24 23 22 21 18 17 16
8 8 6 5 5 10 2 2 7 6 12 15 11 7 7 6 1 4 3 5 5 6 8 10 13 14 16 17 18 20 21 22 23 24 24 24 23 23 23 23 21 17 16 17
8 5 17 12 9 12 8 11 6 6 5 4 6 7 7 5 6 4 4 1 2 6 9 10 10 12 16 18 18 21 21 21 24 23 24 24 23 24 22 20 17 16 15 15
15 13 8 9 8 19 13 8 10 5 7 10 7 7 6 5 2 2 3 3 5 7 10 12 12 13 14 16 16 19 20 23 24 24 24 24 24 19 18 20 18 15 13 14
10 12 11 17 11 1 21 4 11 4 8 7 8 6 7 6 5 3 2 4 7 10 11 11 11 15 14 15 16 20 22 23 25 23 22 23 23 21 19 19 17 14 9 11
11 13 5 5 10 12 12 7 8 7 6 7 6 8 8 6 6 4 2 3 6 8 9 10 12 14 16 15 17 16 20 22 22 22 22 21 22 23 19 14 13 12 12 10
8 17 13 6 9 1 8 12 10 8 8 8 7 6 8 7 5 4 2 2 4 6 7 9 10 12 16 17 17 17 19 21 21 20 19 20 18 19 19 16 14 13 12 14
10 11 12 10 12 14 7 14 11 14 13 11 11 7 5 6 6 5 3 1 3 5 7 8 11 13 14 16 17 17 18 19 19 19 16 17 17 16 16 16 15 20 25 26
Wind_Direction
355 311 281 42 54 328 271 261 270 277 126 188 243 261 263 149 136 134 121 100 69 51 20 15 16 12 353 332 342 329 321 320 312 310 311 305 298 295 295 288 293 308 322 317
317 271 60 22 285 252 270 268 273 285 146 341 267 260 134 164 166 143 129 112 65 27 21 9 11 4 345 334 336 331 325 321 317 303 306 301 293 287 292 283 279 287 300 311
292 280 50 289 297 283 280 279 307 285 313 274 273 268 151 159 130 140 157 141 58 33 7 357 1 345 348 339 335 329 325 319 316 305 312 305 290 284 287 285 279 270 274 302
268 81 39 311 278 285 279 51 318 279 304 239 56 285 104 167 171 180 154 87 51 16 3 340 337 0 346 332 330 325 318 322 312 325 311 307 311 296 293 277 281 280 263 286
250 276 307 276 278 81 250 343 256 258 249 285 253 257 286 157 187 180 141 93 45 12 358 322 358 354 336 329 326 326 321 315 325 320 308 304 295 306 300 290 282 283 271 266
247 121 213 292 99 187 323 287 272 250 254 267 257 225 221 179 196 141 124 71 41 357 322 350 2 336 327 330 326 325 325 323 324 327 317 307 313 319 319 300 288 284 282 255
253 210 111 180 264 156 227 291 324 334 24 228 86 333 244 142 103 125 107 62 32 351 12 359 335 334 327 331 328 333 327 322 323 321 315 316 314 309 303 308 314 287 276 249
264 300 167 152 210 88 203 16 161 257 260 266 16 253 246 126 128 135 88 71 31 19 353 337 330 328 330 329 330 330 327 322 323 321 317 313 306 301 306 303 308 307 306 257
308 242 94 30 44 116 147 198 359 335 60 356 232 263 74 139 151 96 44 38 22 347 336 333 333 328 328 325 327 324 324 320 317 317 315 313 307 306 306 308 303 299 303 301
351 301 49 91 127 132 265 157 84 139 290 266 252 252 230 186 159 82 19 358 334 346 344 335 325 313 329 321 321 318 321 316 314 318 313 311 307 308 302 298 300 301 300 304
51 203 156 127 202 179 165 224 223 346 193 218 293 250 155 158 167 131 340 10 8 343 328 328 314 326 322 320 317 317 318 319 317 315 319 309 312 300 299 302 299 301 306 312
197 239 245 245 77 41 304 220 181 162 241 253 244 260 328 337 148 127 79 33 330 331 326 325 320 328 323 323 323 322 322 324 319 318 314 315 312 308 300 293 293 304 306 300
177 222 328 287 358 130 235 204 242 255 229 231 234 251 122 156 186 56 60 4 344 331 331 318 327 324 322 322 323 320 319 318 320 318 314 313 310 307 303 303 296 298 294 293
148 212 203 254 265 143 222 219 211 219 237 255 236 260 255 270 291 351 19 352 346 331 326 321 326 322 321 322 321 320 317 317 319 316 313 310 309 304 298 296 297 294 286 285
172 231 230 256 274 277 267 254 218 217 233 230 262 246 265 262 281 330 351 343 331 328 319 331 320 318 320 322 321 319 316 317 319 316 312 309 307 303 299 296 290 290 277 272
180 245 243 267 268 266 264 246 243 245 241 247 257 271 260 285 281 23 336 352 322 314 330 323 318 319 321 325 321 320 317 317 320 313 313 309 309 305 299 296 293 291 296 272
185 198 172 247 62 336 281 231 231 242 236 237 244 250 287 261 241 12 3 325 322 334 323 322 320 319 322 324 323 316 317 315 315 312 311 310 307 307 305 299 293 290 290 289
181 173 175 272 102 247 245 200 235 241 250 245 251 255 214 147 111 7 5 76 336 316 325 321 320 317 318 317 314 313 313 311 312 312 312 315 311 307 305 300 292 287 283 280
183 169 179 216 200 300 294 201 173 181 251 227 234 243 165 119 80 305 90 86 301 332 316 319 319 314 315 316 319 315 314 313 313 317 320 315 315 308 304 298 291 284 280 275
185 201 205 164 223 235 163 115 95 94 268 219 206 207 151 103 154 245 71 39 338 319 320 319 315 317 312 318 318 313 313 320 320 325 320 318 313 305 298 292 287 281 274 271
182 198 220 228 239 273 214 154 140 149 248 108 149 134 148 186 207 135 73 38 323 316 319 319 323 315 320 322 324 321 321 319 322 320 319 317 311 302 294 294 284 271 267 266
174 169 194 202 221 252 148 130 191 186 139 139 140 163 190 198 82 2 348 328 319 325 330 329 322 325 328 323 325 320 322 325 322 323 321 317 313 315 311 308 299 283 258 263
204 191 177 197 212 112 170 167 198 165 160 170 152 154 163 159 197 192 286 325 333 335 333 332 331 326 329 331 333 325 326 327 326 323 322 323 322 322 322 319 315 314 252 256
227 206 219 154 217 224 198 202 164 193 151 137 138 146 161 169 160 182 215 326 326 327 332 338 338 330 325 333 333 328 326 328 325 322 327 329 331 328 330 327 328 325 327 292
181 171 191 245 265 242 207 210 212 161 135 128 137 152 166 158 162 166 140 288 308 317 337 344 336 326 324 331 331 334 333 332 328 329 333 336 332 333 331 335 334 333 338 336
184 172 185 212 193 203 197 201 178 160 173 167 152 146 158 161 153 134 182 259 309 334 348 346 336 330 328 332 334 335 337 335 329 332 340 340 332 337 335 335 337 345 351 353